"Pseudo-MPEC" for P22bxQ9

Created 2025 Jul 7 22:35:11 UT using Find_Orb

Click here for an explanation of pseudo-MPECs

 
 Astrometry: 
     P22bxQ9* C2025 07 04.40872220 29 27.128-02 49 28.44   ~74BZ 22.69wXNEOCPF52
     P22bxQ9  C2025 07 04.41827720 29 27.310-02 49 23.62   ~74BZ 21.93wXNEOCPF52
     P22bxQ9  C2025 07 04.43728720 29 27.654-02 49 14.22   ~74BZ 22.07wXNEOCPF52
     P22bxQ9  C2025 07 04.49819020 29 28.709-02 48 44.08   ~74N5 22.49GVNEOCPF52
     P22bxQ9 2C2025 07 05.46110320 29 52.652-02 40 53.71   ~76Mo 22.3 GWNEOCPT12
     P22bxQ9 2C2025 07 05.46695020 29 52.745-02 40 50.92   ~76Mo 22.2 GWNEOCPT12
     P22bxQ9  C2025 07 06.39778020 30 13.560-02 33 43.30   ~76C5 22.1 RVNEOCP691
     P22bxQ9  C2025 07 06.40718020 30 13.730-02 33 38.30   ~76C5 22.3 RVNEOCP691
     P22bxQ9  C2025 07 06.41659020 30 13.870-02 33 34.30   ~76C5 22.7 RVNEOCP691

Station data:
(691) Steward Observatory, Kitt Peak - Spacewatch  (N31.962174 W111.600327)
   US/Arizona.  Observer J. V. Scotti. 0.9-m f/3 reflector + CCD.
(F52) Pan-STARRS 2, Haleakala  (N20.707382 W156.255910)  US/Hawaii.
   Observers J. Bulger, T. Dukes, T. Lowe, A. Schultz, M. Willman. Measurers
   K. Chambers, S. Chastel, T. de Boer, L. Denneau, J. Fairlamb, H.
   Flewelling, M. Huber, C.-C. Lin, E. Magnier, Y. Ramanjooloo, R. Wainscoat,
   R. Weryk. 1.8-m Ritchey-Chrétien + CCD.
(T12) Mauna Kea-UH/Tholen NEO Follow-Up (2.24-m)  (N19.822991 W155.469434)
   US/Hawaii.  Observer Y. Ramanjooloo. 2.24-m f/10.1 University of Hawaii
   reflector.

Orbital elements:  P22bxQ9
   Perihelion 2025 Jul 12.61763 +/- 4.6 TT = 14:49:23 (JD 2460869.11763)
Epoch 2025 Jul  6.0 TT = JDT 2460862.5   Earth MOID: 0.3818   Ma: 0.0833
M 357.87106846 +/- 1.6              (J2000 ecliptic)             AutoNEOCP
n   0.32170608 +/- 0.0193           Peri.   88.99645 +/- 5.4
a   2.10942065 +/- 0.0843           Node   206.51330 +/- 2.3
e   0.3430225 +/- 0.0209            Incl.    4.65028 +/- 0.10
P   3.06369                H 22.67  G  0.15   U 10.1
q 1.38584184 +/- 0.0114    Q 2.83299946 +/- 0.157
From 9 observations 2025 July 4-6; mean residual 0".18
Residuals in arcseconds: 
250704 F52  .03-  .06+    250704 F52  .03-  .24-    250706 691  .33-  .45-    
250704 F52  .04+  .11+    250705 T12  .02-  .00     250706 691  .19+  .29+    
250704 F52  .03+  .03+    250705 T12  .02+  .01+    250706 691  .24+  .02+    

Ephemerides (geocentric):
Date (UTC) HH   RA             Dec           delta  r     elong  mag " sig PA
---- --------  ------------   ------------  ------ ------ -----  --- --------
2025 07 07 23  20 30 46.028   -02 22 16.13  .40512 1.3864 151.6 22.4 1.00  18
2025 07 08 00  20 30 46.832   -02 21 58.98  .40504 1.3864 151.6 22.4 1.02  18
2025 07 08 01  20 30 47.633   -02 21 41.89  .40496 1.3864 151.6 22.4 1.04  18
2025 07 08 02  20 30 48.431   -02 21 24.84  .40488 1.3864 151.7 22.4 1.06  18
2025 07 08 03  20 30 49.227   -02 21 07.83  .40480 1.3864 151.7 22.4 1.09  18
2025 07 08 04  20 30 50.019   -02 20 50.87  .40472 1.3864 151.7 22.4 1.11  18
2025 07 08 05  20 30 50.808   -02 20 33.96  .40464 1.3864 151.8 22.4 1.13  18
2025 07 08 06  20 30 51.595   -02 20 17.10  .40456 1.3863 151.8 22.4 1.15  18
2025 07 08 07  20 30 52.378   -02 20 00.27  .40449 1.3863 151.8 22.4 1.17  18
2025 07 08 08  20 30 53.159   -02 19 43.50  .40441 1.3863 151.8 22.4 1.19  18
2025 07 08 09  20 30 53.937   -02 19 26.77  .40433 1.3863 151.9 22.4 1.22  18
2025 07 08 10  20 30 54.711   -02 19 10.09  .40425 1.3863 151.9 22.4 1.24  18
2025 07 08 11  20 30 55.483   -02 18 53.45  .40417 1.3863 151.9 22.4 1.26  18
2025 07 08 12  20 30 56.252   -02 18 36.86  .40410 1.3863 151.9 22.4 1.28  18
2025 07 08 13  20 30 57.018   -02 18 20.32  .40402 1.3863 152.0 22.4 1.31  18
2025 07 08 14  20 30 57.781   -02 18 03.82  .40394 1.3863 152.0 22.4 1.33  18
2025 07 08 15  20 30 58.542   -02 17 47.37  .40386 1.3863 152.0 22.4 1.35  18
2025 07 08 16  20 30 59.299   -02 17 30.97  .40379 1.3863 152.0 22.4 1.37  18
2025 07 08 17  20 31 00.053   -02 17 14.61  .40371 1.3862 152.1 22.4 1.40  18
2025 07 08 18  20 31 00.805   -02 16 58.30  .40363 1.3862 152.1 22.4 1.42  18
2025 07 08 19  20 31 01.553   -02 16 42.03  .40356 1.3862 152.1 22.4 1.44  18
2025 07 08 20  20 31 02.299   -02 16 25.82  .40348 1.3862 152.2 22.4 1.47  18
2025 07 08 21  20 31 03.042   -02 16 09.64  .40340 1.3862 152.2 22.4 1.49  18
2025 07 08 22  20 31 03.782   -02 15 53.52  .40333 1.3862 152.2 22.4 1.51  18
2025 07 08 23  20 31 04.519   -02 15 37.44  .40325 1.3862 152.2 22.4 1.54  18
2025 07 09 00  20 31 05.253   -02 15 21.41  .40318 1.3862 152.3 22.4 1.56  18
2025 07 09 01  20 31 05.985   -02 15 05.42  .40310 1.3862 152.3 22.4 1.58  18
2025 07 09 02  20 31 06.713   -02 14 49.48  .40303 1.3862 152.3 22.4 1.61  18
2025 07 09 03  20 31 07.439   -02 14 33.59  .40295 1.3862 152.3 22.4 1.63  18
2025 07 09 04  20 31 08.162   -02 14 17.75  .40288 1.3862 152.4 22.4 1.66  18
2025 07 09 05  20 31 08.881   -02 14 01.95  .40280 1.3861 152.4 22.4 1.68  18
2025 07 09 06  20 31 09.598   -02 13 46.20  .40273 1.3861 152.4 22.4 1.70  18
2025 07 09 07  20 31 10.313   -02 13 30.49  .40266 1.3861 152.4 22.4 1.73  18
2025 07 09 08  20 31 11.024   -02 13 14.84  .40258 1.3861 152.5 22.4 1.75  18
2025 07 09 09  20 31 11.733   -02 12 59.23  .40251 1.3861 152.5 22.4 1.78  18
2025 07 09 10  20 31 12.438   -02 12 43.66  .40243 1.3861 152.5 22.4 1.80  18
2025 07 09 11  20 31 13.141   -02 12 28.15  .40236 1.3861 152.6 22.4 1.83  18
2025 07 09 12  20 31 13.841   -02 12 12.68  .40229 1.3861 152.6 22.4 1.85  18
2025 07 09 13  20 31 14.538   -02 11 57.26  .40222 1.3861 152.6 22.4 1.88  17
2025 07 09 14  20 31 15.233   -02 11 41.88  .40214 1.3861 152.6 22.4 1.90  17
2025 07 09 15  20 31 15.924   -02 11 26.55  .40207 1.3861 152.7 22.4 1.93  17
2025 07 09 16  20 31 16.613   -02 11 11.27  .40200 1.3861 152.7 22.4 1.95  17
2025 07 09 17  20 31 17.299   -02 10 56.04  .40193 1.3861 152.7 22.4 1.97  17
2025 07 09 18  20 31 17.982   -02 10 40.86  .40185 1.3861 152.7 22.4 2.00  17
2025 07 09 19  20 31 18.662   -02 10 25.72  .40178 1.3861 152.8 22.4 2.02  17
2025 07 09 20  20 31 19.339   -02 10 10.63  .40171 1.3860 152.8 22.4 2.05  17
2025 07 09 21  20 31 20.014   -02 09 55.58  .40164 1.3860 152.8 22.4 2.07  17
2025 07 09 22  20 31 20.686   -02 09 40.59  .40157 1.3860 152.8 22.4 2.10  17